| time (UTC) | temp F | wind direction | speed MPH | gust MPH | rain 1hr in | rain 24hr in | rain mn in | humidity % | barometer mb |
| 20260507163257 | 61 | 270 | 6.0 | 11.0 | 0.00 | 0.00 | 0.00 | 50 | 1014.8 |
| 20260507162217 | 62 | 270 | 6.0 | 13.0 | 0.00 | 0.00 | 0.00 | 49 | 1014.9 |
| 20260507161217 | 61 | 270 | 6.0 | 11.0 | 0.00 | 0.00 | 0.00 | 49 | 1015.0 |
| 20260507160216 | 62 | 225 | 9.0 | 16.0 | 0.00 | 0.00 | 0.00 | 48 | 1015.0 |
| 20260507155216 | 61 | 293 | 9.0 | 14.0 | 0.00 | 0.00 | 0.00 | 47 | 1015.1 |
| 20260507154216 | 61 | 225 | 5.0 | 8.0 | 0.00 | 0.00 | 0.00 | 47 | 1015.0 |
| 20260507153216 | 61 | 225 | 7.0 | 15.0 | 0.00 | 0.00 | 0.00 | 48 | 1015.0 |
| 20260507152216 | 60 | 248 | 9.0 | 13.0 | 0.00 | 0.00 | 0.00 | 47 | 1014.9 |
| 20260507151216 | 59 | 180 | 8.0 | 15.0 | 0.00 | 0.00 | 0.00 | 48 | 1014.9 |
| 20260507150216 | 58 | 225 | 9.0 | 17.0 | 0.00 | 0.00 | 0.00 | 49 | 1015.1 |
| 20260507145216 | 58 | 225 | 10.0 | 19.0 | 0.00 | 0.00 | 0.00 | 47 | 1015.1 |
| 20260507144216 | 57 | 203 | 13.0 | 22.0 | 0.00 | 0.00 | 0.00 | 46 | 1015.3 |
| 20260507143216 | 57 | 225 | 9.0 | 13.0 | 0.00 | 0.00 | 0.00 | 48 | 1015.5 |
| 20260507142216 | 56 | 180 | 8.0 | 12.0 | 0.00 | 0.00 | 0.00 | 48 | 1015.6 |
| 20260507141216 | 55 | 225 | 9.0 | 15.0 | 0.00 | 0.00 | 0.00 | 52 | 1015.8 |
| 20260507140216 | 54 | 180 | 11.0 | 17.0 | 0.00 | 0.00 | 0.00 | 54 | 1015.8 |
| 20260507135216 | 54 | 158 | 6.0 | 10.0 | 0.00 | 0.00 | 0.00 | 55 | 1016.0 |
| 20260507134216 | 53 | 203 | 6.0 | 12.0 | 0.00 | 0.00 | 0.00 | 57 | 1016.0 |
| 20260507133216 | 51 | 180 | 7.0 | 13.0 | 0.00 | 0.00 | 0.00 | 58 | 1016.1 |
| 20260507132216 | 51 | 225 | 11.0 | 16.0 | 0.00 | 0.00 | 0.00 | 59 | 1016.3 |
| 20260507131219 | 50 | 225 | 5.0 | 8.0 | 0.00 | 0.00 | 0.00 | 62 | 1016.4 |
| 20260507130216 | 49 | 225 | 5.0 | 10.0 | 0.00 | 0.00 | 0.00 | 64 | 1016.5 |
| 20260507125216 | 48 | 203 | 7.0 | 10.0 | 0.00 | 0.00 | 0.00 | 65 | 1016.6 |
| 20260507124216 | 47 | 180 | 5.0 | 7.0 | 0.00 | 0.00 | 0.00 | 66 | 1016.6 |
| 20260507123216 | 46 | 180 | 6.0 | 9.0 | 0.00 | 0.00 | 0.00 | 67 | 1016.6 |
| 20260507122236 | 45 | 180 | 3.0 | 5.0 | 0.00 | 0.00 | 0.00 | 69 | 1016.7 |
| 20260507121216 | 45 | 180 | 3.0 | 10.0 | 0.00 | 0.00 | 0.00 | 69 | 1016.6 |
| 20260507120216 | 44 | 203 | 5.0 | 8.0 | 0.00 | 0.00 | 0.00 | 71 | 1016.5 |
| 20260507115216 | 42 | 203 | 3.0 | 6.0 | 0.00 | 0.00 | 0.00 | 73 | 1016.4 |
| 20260507114216 | 42 | 180 | 2.0 | 5.0 | 0.00 | 0.00 | 0.00 | 73 | 1016.4 |
| 20260507113236 | 42 | 180 | 2.0 | 3.0 | 0.00 | 0.00 | 0.00 | 72 | 1016.4 |
| 20260507112216 | 42 | 180 | 2.0 | 3.0 | 0.00 | 0.00 | 0.00 | 72 | 1016.3 |
| 20260507111216 | 41 | 158 | 2.0 | 4.0 | 0.00 | 0.00 | 0.00 | 72 | 1016.2 |
| 20260507110216 | 41 | 203 | 3.0 | 5.0 | 0.00 | 0.00 | 0.00 | 72 | 1016.2 |
| 20260507105216 | 41 | 180 | 2.0 | 4.0 | 0.00 | 0.00 | 0.00 | 72 | 1016.3 |
| 20260507104216 | 41 | 180 | 2.0 | 4.0 | 0.00 | 0.00 | 0.00 | 72 | 1016.4 |
| 20260507103256 | 41 | 203 | 1.0 | 2.0 | 0.00 | 0.00 | 0.00 | 72 | 1016.4 |
| 20260507102216 | 41 | 203 | 3.0 | 5.0 | 0.00 | 0.00 | 0.00 | 73 | 1016.4 |
| 20260507101216 | 41 | 158 | 3.0 | 4.0 | 0.00 | 0.00 | 0.00 | 73 | 1016.3 |
| 20260507100236 | 40 | 158 | 2.0 | 5.0 | 0.00 | 0.00 | 0.00 | 74 | 1016.4 |
| 20260507095216 | 40 | 158 | 2.0 | 4.0 | 0.00 | 0.00 | 0.00 | 74 | 1016.5 |
| 20260507094217 | 40 | 158 | 1.0 | 4.0 | 0.00 | 0.00 | 0.00 | 74 | 1016.6 |
| 20260507093216 | 41 | 0.0 | 1.0 | 0.00 | 0.00 | 0.00 | 73 | 1016.7 | |
| 20260507092216 | 41 | 180 | 2.0 | 3.0 | 0.00 | 0.00 | 0.00 | 73 | 1016.8 |
| 20260507091215 | 41 | 158 | 4.0 | 6.0 | 0.00 | 0.00 | 0.00 | 72 | 1016.8 |
| 20260507090216 | 42 | 158 | 3.0 | 5.0 | 0.00 | 0.00 | 0.00 | 70 | 1016.8 |
| 20260507085216 | 42 | 158 | 3.0 | 5.0 | 0.00 | 0.00 | 0.00 | 69 | 1016.9 |
| 20260507084215 | 42 | 158 | 4.0 | 6.0 | 0.00 | 0.00 | 0.00 | 69 | 1017.0 |
| 20260507083215 | 42 | 158 | 3.0 | 5.0 | 0.00 | 0.00 | 0.00 | 69 | 1017.0 |
| 20260507082235 | 42 | 158 | 3.0 | 5.0 | 0.00 | 0.00 | 0.00 | 70 | 1017.1 |
| 20260507081218 | 42 | 158 | 3.0 | 4.0 | 0.00 | 0.00 | 0.00 | 70 | 1017.1 |
| 20260507080215 | 42 | 158 | 4.0 | 6.0 | 0.00 | 0.00 | 0.00 | 71 | 1017.1 |
| 20260507075215 | 42 | 180 | 3.0 | 4.0 | 0.00 | 0.00 | 0.00 | 72 | 1017.0 |
| 20260507074216 | 42 | 180 | 3.0 | 4.0 | 0.00 | 0.00 | 0.00 | 72 | 1017.1 |
| 20260507073215 | 42 | 158 | 2.0 | 4.0 | 0.00 | 0.00 | 0.00 | 73 | 1017.1 |
| 20260507072215 | 42 | 158 | 1.0 | 2.0 | 0.00 | 0.00 | 0.00 | 72 | 1017.2 |
| 20260507071215 | 42 | 180 | 1.0 | 2.0 | 0.00 | 0.00 | 0.00 | 72 | 1017.3 |
| 20260507070215 | 42 | 0.0 | 0.0 | 0.00 | 0.00 | 0.00 | 74 | 1017.4 | |
| 20260507065215 | 41 | 180 | 1.0 | 3.0 | 0.00 | 0.00 | 0.00 | 77 | 1017.4 |
| 20260507064215 | 41 | 180 | 1.0 | 2.0 | 0.00 | 0.00 | 0.00 | 78 | 1017.5 |
| 20260507063217 | 41 | 180 | 1.0 | 2.0 | 0.00 | 0.00 | 0.00 | 78 | 1017.6 |
| 20260507062217 | 41 | 0.0 | 0.0 | 0.00 | 0.00 | 0.00 | 77 | 1017.8 | |
| 20260507061217 | 41 | 0.0 | 0.0 | 0.00 | 0.00 | 0.00 | 77 | 1017.8 | |
| 20260507060217 | 41 | 0.0 | 0.0 | 0.00 | 0.00 | 0.00 | 77 | 1017.9 | |
| 20260507055217 | 41 | 0.0 | 0.0 | 0.00 | 0.00 | 0.00 | 76 | 1018.0 | |
| 20260507054217 | 41 | 0.0 | 0.0 | 0.00 | 0.00 | 0.00 | 76 | 1017.8 | |
| 20260507053217 | 41 | 0.0 | 0.0 | 0.00 | 0.00 | 0.00 | 75 | 1017.9 | |
| 20260507052217 | 41 | 0.0 | 0.0 | 0.00 | 0.00 | 0.00 | 75 | 1017.8 | |
| 20260507051218 | 41 | 0.0 | 1.0 | 0.00 | 0.00 | 0.00 | 75 | 1017.9 | |
| 20260507050257 | 41 | 158 | 1.0 | 3.0 | 0.00 | 0.00 | 0.00 | 74 | 1017.8 |
| 20260507045217 | 41 | 158 | 1.0 | 3.0 | 0.00 | 0.00 | 0.00 | 73 | 1017.7 |
| 20260507044217 | 41 | 0.0 | 0.0 | 0.00 | 0.00 | 0.00 | 72 | 1017.6 | |
| 20260507043257 | 42 | 0.0 | 0.0 | 0.00 | 0.00 | 0.00 | 71 | 1017.7 | |
| 20260507042217 | 42 | 158 | 1.0 | 3.0 | 0.00 | 0.00 | 0.00 | 70 | 1017.7 |
| 20260507041217 | 42 | 180 | 1.0 | 2.0 | 0.00 | 0.00 | 0.00 | 67 | 1017.8 |
| 20260507040219 | 42 | 0.0 | 0.0 | 0.00 | 0.00 | 0.00 | 65 | 1017.9 | |
| 20260507035217 | 43 | 0.0 | 0.0 | 0.00 | 0.00 | 0.00 | 63 | 1017.9 | |
| 20260507034217 | 43 | 0.0 | 0.0 | 0.00 | 0.00 | 0.00 | 63 | 1017.9 | |
| 20260507033217 | 43 | 0.0 | 0.0 | 0.00 | 0.00 | 0.00 | 61 | 1017.8 | |
| 20260507032217 | 44 | 0.0 | 0.0 | 0.00 | 0.00 | 0.00 | 60 | 1017.8 | |
| 20260507031217 | 44 | 0.0 | 0.0 | 0.00 | 0.00 | 0.00 | 60 | 1017.9 | |
| 20260507030237 | 45 | 0.0 | 0.0 | 0.00 | 0.00 | 0.00 | 60 | 1017.9 | |
| 20260507025217 | 45 | 0.0 | 0.0 | 0.00 | 0.00 | 0.00 | 60 | 1017.7 | |
| 20260507024217 | 46 | 0.0 | 0.0 | 0.00 | 0.00 | 0.00 | 60 | 1017.7 | |
| 20260507023217 | 46 | 0.0 | 0.0 | 0.00 | 0.00 | 0.00 | 60 | 1017.7 | |
| 20260507022217 | 47 | 0.0 | 0.0 | 0.00 | 0.00 | 0.00 | 59 | 1017.6 | |
| 20260507021216 | 49 | 0.0 | 0.0 | 0.00 | 0.00 | 0.00 | 55 | 1017.5 | |
| 20260507020216 | 50 | 0.0 | 0.0 | 0.00 | 0.00 | 0.00 | 46 | 1017.4 | |
| 20260507015217 | 51 | 0.0 | 0.0 | 0.00 | 0.00 | 0.00 | 46 | 1017.3 | |
| 20260507014217 | 51 | 0.0 | 0.0 | 0.00 | 0.00 | 0.00 | 44 | 1017.2 | |
| 20260507013216 | 52 | 0.0 | 0.0 | 0.00 | 0.00 | 0.00 | 43 | 1017.1 | |
| 20260507012216 | 52 | 270 | 3.0 | 3.0 | 0.00 | 0.00 | 0.00 | 41 | 1017.1 |
| 20260507011217 | 53 | 293 | 2.0 | 4.0 | 0.00 | 0.00 | 0.00 | 41 | 1017.0 |
| 20260507010217 | 53 | 293 | 3.0 | 4.0 | 0.00 | 0.00 | 0.00 | 40 | 1017.0 |
| 20260507005216 | 54 | 293 | 3.0 | 5.0 | 0.00 | 0.00 | 0.00 | 39 | 1017.1 |
| 20260507004236 | 54 | 293 | 5.0 | 7.0 | 0.00 | 0.00 | 0.00 | 38 | 1017.0 |
| 20260507003236 | 55 | 293 | 7.0 | 8.0 | 0.00 | 0.00 | 0.00 | 37 | 1017.0 |
| 20260507002257 | 55 | 293 | 9.0 | 12.0 | 0.00 | 0.00 | 0.00 | 37 | 1017.1 |
| 20260507001216 | 55 | 293 | 9.0 | 13.0 | 0.00 | 0.00 | 0.00 | 36 | 1017.1 |
| 20260507000236 | 55 | 293 | 12.0 | 18.0 | 0.00 | 0.00 | 0.00 | 36 | 1017.1 |
| 20260506235216 | 55 | 293 | 8.0 | 9.0 | 0.00 | 0.00 | 0.00 | 36 | 1017.0 |
| 20260506234216 | 55 | 315 | 7.0 | 11.0 | 0.00 | 0.00 | 0.00 | 37 | 1017.2 |
| 20260506233236 | 55 | 293 | 4.0 | 6.0 | 0.00 | 0.00 | 0.00 | 38 | 1017.2 |
| 20260506232216 | 55 | 293 | 4.0 | 5.0 | 0.00 | 0.00 | 0.00 | 39 | 1017.3 |
| 20260506231216 | 56 | 293 | 11.0 | 15.0 | 0.00 | 0.00 | 0.00 | 37 | 1017.3 |
| 20260506230216 | 56 | 293 | 8.0 | 10.0 | 0.00 | 0.00 | 0.00 | 38 | 1017.3 |
| 20260506225216 | 56 | 293 | 9.0 | 11.0 | 0.00 | 0.00 | 0.00 | 37 | 1017.4 |
| 20260506224216 | 56 | 293 | 9.0 | 13.0 | 0.00 | 0.00 | 0.00 | 38 | 1017.3 |
| 20260506223256 | 56 | 293 | 11.0 | 12.0 | 0.00 | 0.00 | 0.00 | 36 | 1017.2 |
| 20260506222236 | 57 | 293 | 14.0 | 22.0 | 0.00 | 0.00 | 0.00 | 38 | 1017.2 |
| 20260506221216 | 57 | 293 | 14.0 | 17.0 | 0.00 | 0.00 | 0.00 | 36 | 1017.2 |
| 20260506220216 | 56 | 315 | 11.0 | 17.0 | 0.00 | 0.00 | 0.00 | 36 | 1017.1 |
| 20260506215217 | 57 | 293 | 10.0 | 14.0 | 0.00 | 0.00 | 0.00 | 37 | 1017.0 |
| 20260506214216 | 56 | 293 | 7.0 | 12.0 | 0.00 | 0.00 | 0.00 | 37 | 1017.1 |
| 20260506213216 | 57 | 315 | 12.0 | 16.0 | 0.00 | 0.00 | 0.00 | 37 | 1017.2 |
| 20260506212216 | 57 | 293 | 13.0 | 17.0 | 0.00 | 0.00 | 0.00 | 36 | 1017.1 |
| 20260506211236 | 57 | 315 | 9.0 | 12.0 | 0.00 | 0.00 | 0.00 | 35 | 1017.1 |
| 20260506210216 | 58 | 270 | 8.0 | 14.0 | 0.00 | 0.00 | 0.00 | 36 | 1017.3 |
| 20260506205216 | 57 | 293 | 10.0 | 12.0 | 0.00 | 0.00 | 0.00 | 38 | 1017.4 |
| 20260506204216 | 57 | 315 | 9.0 | 15.0 | 0.00 | 0.00 | 0.00 | 36 | 1017.6 |
| 20260506203216 | 57 | 293 | 14.0 | 18.0 | 0.00 | 0.00 | 0.00 | 36 | 1017.6 |
| 20260506202236 | 56 | 315 | 8.0 | 9.0 | 0.00 | 0.00 | 0.00 | 35 | 1017.6 |
| 20260506201216 | 57 | 315 | 10.0 | 15.0 | 0.00 | 0.00 | 0.00 | 37 | 1017.7 |
| 20260506200216 | 56 | 293 | 8.0 | 11.0 | 0.00 | 0.00 | 0.00 | 38 | 1017.9 |
| 20260506195216 | 57 | 293 | 8.0 | 12.0 | 0.00 | 0.00 | 0.00 | 36 | 1017.9 |
| 20260506194216 | 56 | 293 | 11.0 | 14.0 | 0.00 | 0.00 | 0.00 | 38 | 1017.9 |
| 20260506193215 | 55 | 293 | 9.0 | 12.0 | 0.00 | 0.00 | 0.00 | 36 | 1017.9 |
| 20260506192216 | 56 | 293 | 7.0 | 10.0 | 0.00 | 0.00 | 0.00 | 36 | 1017.8 |
| 20260506191216 | 56 | 270 | 8.0 | 11.0 | 0.00 | 0.00 | 0.00 | 37 | 1018.1 |
| 20260506190216 | 56 | 293 | 11.0 | 13.0 | 0.00 | 0.00 | 0.00 | 37 | 1018.0 |
| 20260506185236 | 55 | 293 | 6.0 | 8.0 | 0.00 | 0.00 | 0.00 | 38 | 1017.8 |
| 20260506184216 | 56 | 293 | 14.0 | 18.0 | 0.00 | 0.00 | 0.00 | 36 | 1017.9 |
| 20260506183216 | 55 | 315 | 14.0 | 19.0 | 0.00 | 0.00 | 0.00 | 36 | 1018.0 |
| 20260506182215 | 55 | 270 | 6.0 | 10.0 | 0.00 | 0.00 | 0.00 | 38 | 1018.0 |
| 20260506181216 | 55 | 293 | 11.0 | 15.0 | 0.00 | 0.00 | 0.00 | 39 | 1018.1 |
| 20260506180215 | 55 | 293 | 12.0 | 16.0 | 0.00 | 0.00 | 0.00 | 38 | 1018.1 |
| 20260506175215 | 55 | 338 | 9.0 | 11.0 | 0.00 | 0.00 | 0.00 | 38 | 1018.0 |
| 20260506174235 | 55 | 270 | 7.0 | 12.0 | 0.00 | 0.00 | 0.00 | 40 | 1018.1 |
| 20260506173215 | 55 | 293 | 10.0 | 14.0 | 0.00 | 0.00 | 0.00 | 40 | 1018.2 |
| 20260506172215 | 55 | 315 | 7.0 | 10.0 | 0.00 | 0.00 | 0.00 | 39 | 1018.0 |
| 20260506171215 | 54 | 293 | 5.0 | 8.0 | 0.00 | 0.00 | 0.00 | 40 | 1018.1 |
| 20260506170215 | 54 | 270 | 8.0 | 11.0 | 0.00 | 0.00 | 0.00 | 41 | 1018.1 |
| 20260506165215 | 54 | 293 | 7.0 | 10.0 | 0.00 | 0.00 | 0.00 | 43 | 1018.1 |
| 20260506164215 | 54 | 0 | 8.0 | 10.0 | 0.00 | 0.00 | 0.00 | 43 | 1018.2 |